Theta_e
337 336 334 331 332 333 331 328 327 326 325 327 327 324 324 323 323 323 323 322 321 320 319 319 318 318 318 318 318 316 315 316 316 317 317 317 315 315 313 313 314 313
334 333 333 333 331 331 330 329 328 327 325 326 325 325 324 323 323 323 322 320 320 319 318 317 317 316 317 317 317 315 314 314 314 316 316 315 314 315 314 314 313 312
333 331 331 329 328 328 328 329 327 325 324 324 323 322 321 322 321 321 320 319 318 318 318 317 317 317 316 315 315 315 315 315 315 315 315 314 314 313 313 313 313 313
333 332 331 330 329 328 327 325 324 323 323 322 321 320 320 320 320 320 319 318 317 317 316 316 316 315 315 315 316 315 315 314 314 315 314 314 314 313 313 313 312 312
333 332 331 329 328 328 326 322 321 322 321 321 321 320 320 320 319 318 317 317 317 316 315 315 316 316 315 315 315 314 314 313 314 314 313 313 314 313 313 313 312 311
332 332 330 328 327 327 326 322 322 321 320 320 320 320 320 319 318 317 317 317 317 315 314 315 314 314 315 314 314 313 313 313 313 313 311 310 310 311 311 311 311 310
331 330 330 328 327 327 325 323 322 321 320 320 320 320 320 319 318 318 317 317 316 313 313 313 313 313 314 314 313 313 312 312 312 312 310 310 310 310 310 309 309 307
331 330 329 328 327 325 323 321 321 321 322 320 320 319 319 318 317 317 316 316 314 312 313 313 313 313 313 314 312 311 312 311 311 310 310 310 310 309 310 310 310 308
330 329 328 327 324 322 321 321 321 322 321 321 319 318 318 318 317 316 316 315 313 312 312 312 312 312 313 313 312 311 310 311 311 310 309 309 308 308 307 309 309 309
328 328 327 326 323 321 320 321 321 321 321 320 319 318 317 318 318 316 316 315 313 312 312 312 312 313 312 312 311 311 310 309 309 310 310 309 308 307 307 308 308 307
328 326 324 323 321 320 321 321 322 322 322 319 318 318 318 318 317 317 315 314 313 311 311 312 312 311 311 311 311 311 310 310 310 309 310 309 309 309 308 308 308 307
327 325 323 321 320 320 320 321 321 322 321 320 318 317 318 317 316 316 314 312 311 311 312 311 310 311 310 310 310 310 311 311 311 310 309 308 308 308 308 308 307 307
326 324 322 321 320 320 320 320 321 321 320 319 318 317 317 316 316 315 314 312 311 312 311 310 310 310 310 310 310 310 310 310 309 308 308 308 308 308 308 308 307 306
326 324 322 321 321 320 319 320 320 320 320 319 318 317 316 315 314 314 313 311 311 311 311 311 311 310 310 310 310 310 310 309 309 309 308 308 308 308 308 307 306 305
325 324 323 321 320 320 319 319 319 320 320 319 318 317 317 315 315 313 311 311 310 311 311 311 311 310 310 310 310 310 310 309 308 307 307 307 307 307 307 305 305 304
325 323 321 321 320 320 319 318 318 319 319 318 317 317 316 315 314 313 311 311 310 310 311 311 311 311 311 306 307 309 309 308 308 308 307 307 306 306 305 303 302 301
324 323 321 319 320 319 318 317 317 318 318 317 317 316 315 315 313 311 311 310 311 310 310 311 311 308 296 295 297 302 309 309 308 307 308 307 307 306 304 302 302 300
323 321 319 317 317 316 316 316 316 317 317 317 316 316 315 315 313 311 311 311 311 310 310 311 310 299 294 294 295 294 300 313 309 309 308 307 307 306 305 305 304 305
319 316 316 316 316 316 316 316 316 317 318 317 316 316 315 314 312 311 311 311 311 310 310 310 307 295 294 294 293 294 292 301 309 309 308 307 307 305 304 304 304 303
318 315 314 315 315 315 315 315 316 317 318 317 316 315 314 313 313 311 311 311 311 311 311 310 306 296 294 294 294 292 292 296 309 308 308 307 306 306 306 305 304 304
318 316 314 314 314 314 315 315 316 317 317 317 315 314 313 312 312 310 310 311 311 311 310 307 304 293 293 293 293 293 292 295 309 308 307 306 306 306 307 307 306 306
317 315 315 314 314 314 315 315 316 317 316 316 315 314 314 313 312 311 310 310 310 310 308 305 302 292 292 293 293 293 291 306 307 306 305 305 305 305 305 305 305 305
316 315 314 314 314 314 315 317 317 316 316 316 314 313 312 312 312 311 310 310 309 309 307 303 300 295 292 292 292 292 295 306 306 304 304 304 305 305 304 304 305 305
317 315 314 314 315 314 315 317 317 317 316 315 313 312 311 312 311 310 309 310 309 309 306 302 300 296 292 292 292 292 296 305 304 304 304 304 303 304 304 305 300 300
316 316 316 315 315 315 317 317 316 316 316 315 313 312 312 311 310 309 308 309 310 309 305 302 301 297 292 292 292 292 296 301 303 303 302 303 303 303 305 302 298 298
316 316 316 314 313 316 318 317 316 316 315 314 313 312 310 310 308 308 308 308 308 307 305 304 300 299 296 292 292 292 292 301 304 304 301 302 302 302 303 303 300 300
Wind_Speed
9 8 9 9 9 8 10 10 9 9 7 6 5 7 6 7 7 7 7 6 6 6 6 6 7 7 7 7 8 8 8 8 7 7 8 8 8 9 9 9 8 7
9 8 7 8 8 7 8 9 8 7 7 7 6 4 6 7 8 8 7 7 6 6 6 7 7 7 8 7 8 8 8 7 8 6 8 9 8 9 9 9 8 7
10 10 11 12 12 12 11 9 8 7 7 7 7 5 5 7 8 8 7 7 6 6 6 7 7 7 8 8 8 8 8 8 8 7 7 8 7 8 7 7 7 8
13 13 12 13 13 13 10 8 8 7 8 8 7 7 7 7 8 8 7 7 6 6 6 7 8 8 8 8 8 8 8 8 7 7 7 7 7 7 7 6 7 6
13 12 12 13 13 12 10 9 10 8 9 9 7 8 8 9 8 8 7 7 7 7 7 7 8 8 8 8 8 8 8 7 7 7 7 7 6 6 5 6 6 7
12 12 13 13 14 12 9 11 11 10 10 10 10 8 9 9 8 8 8 8 7 7 8 8 8 8 8 8 8 7 7 7 7 8 8 8 7 6 6 6 7 7
14 12 14 13 12 11 10 10 10 10 10 10 11 10 10 9 9 9 9 8 8 8 8 8 8 8 8 8 7 8 7 8 8 8 8 7 7 7 6 7 7 8
14 13 14 14 12 12 11 9 9 9 9 10 10 10 9 9 10 8 8 8 8 9 9 9 9 9 8 7 8 9 8 6 7 8 7 7 6 7 6 6 7 7
14 13 14 16 13 11 11 10 10 10 9 10 10 10 9 9 9 9 9 9 8 9 9 9 10 9 8 9 9 9 9 8 7 8 8 8 7 7 7 7 7 6
14 14 16 14 12 10 11 11 11 10 10 10 11 10 10 9 10 10 9 9 9 10 10 10 10 9 9 9 9 9 9 9 9 8 7 7 7 8 7 7 7 6
15 15 14 12 11 10 12 11 11 10 10 11 11 11 11 10 9 9 9 9 9 10 10 10 10 10 10 10 9 9 9 9 8 8 7 7 7 7 7 6 6 5
16 15 13 12 11 11 12 11 11 10 10 10 11 11 11 10 10 8 8 9 10 10 10 10 10 10 10 10 10 9 9 8 8 8 8 8 8 7 7 6 5 5
15 13 12 11 11 11 10 10 10 10 10 11 11 11 11 10 10 9 9 9 10 10 11 10 10 10 10 10 10 9 9 9 8 8 8 7 8 8 7 6 6 5
14 13 12 11 10 11 11 10 10 10 10 10 11 11 11 11 11 10 9 9 10 10 10 10 9 9 10 9 9 9 9 9 8 8 8 8 8 8 7 6 6 6
15 14 11 11 12 11 12 11 10 9 10 10 10 10 9 10 10 10 10 10 11 10 11 9 9 8 8 8 9 9 9 9 9 8 8 8 8 8 7 7 6 6
16 14 14 13 13 12 12 12 10 10 10 10 11 11 10 10 10 10 10 11 11 11 10 9 8 6 5 7 8 8 9 8 7 8 8 8 8 8 7 7 7 7
15 15 13 13 12 11 11 12 11 9 9 10 10 10 11 10 10 11 10 11 11 11 11 8 7 6 9 10 6 6 8 8 8 7 7 7 7 7 7 7 7 8
15 16 13 13 12 12 12 11 10 10 10 10 10 11 10 10 10 11 11 11 10 11 10 8 7 8 11 8 9 9 8 4 7 7 7 7 7 6 6 6 6 5
14 13 13 12 12 12 11 10 10 11 10 11 12 10 10 11 11 11 11 11 11 11 10 9 9 9 10 8 7 7 7 5 7 6 7 7 6 6 6 6 6 5
14 13 13 12 12 12 11 11 10 11 11 11 11 11 10 10 10 11 11 11 11 11 10 10 10 9 10 8 5 5 7 8 5 6 6 6 6 5 5 6 6 6
14 13 14 13 12 12 11 11 11 11 11 11 11 11 10 10 10 11 10 11 11 10 10 10 9 11 11 8 4 2 7 8 4 6 6 6 5 5 4 4 2 3
14 13 13 13 12 12 12 12 12 11 12 11 11 11 9 9 9 9 10 11 11 11 10 11 9 12 11 8 4 1 4 4 5 5 5 6 5 5 5 4 4 4
14 14 13 13 13 12 12 13 13 13 12 11 11 11 10 10 10 10 10 10 11 11 11 11 10 11 12 10 7 4 1 3 5 5 5 6 5 6 5 4 3 1
13 14 14 13 12 13 13 12 12 10 11 10 11 11 11 10 10 10 10 10 11 11 11 11 10 10 13 11 11 10 6 4 6 6 6 6 6 5 5 4 4 5
12 13 14 14 13 13 13 13 12 11 10 10 10 10 9 10 10 10 10 10 10 10 12 12 11 10 12 12 11 11 6 4 5 6 6 6 6 5 5 5 5 3
11 11 11 12 12 12 12 10 9 10 12 11 10 9 9 9 10 9 10 9 8 9 9 9 10 8 9 11 12 10 8 5 6 6 7 7 6 6 6 6 6 5
Wind_Direction
152 159 155 160 161 152 148 146 142 133 138 134 126 135 148 138 159 146 141 128 124 121 110 109 108 106 101 99 94 95 91 91 89 87 84 82 78 78 74 69 67 70
137 147 151 147 138 119 140 139 132 131 128 123 118 122 124 143 147 147 135 122 126 121 118 116 115 113 112 105 102 99 100 98 97 98 95 90 87 80 76 73 72 71
144 149 157 150 150 151 142 125 119 118 116 118 117 106 123 144 143 141 134 130 126 121 119 116 113 110 109 110 108 104 104 101 96 92 88 87 86 83 79 78 73 67
157 159 160 154 152 147 134 120 117 124 120 123 126 129 139 148 146 138 128 128 125 121 119 122 120 119 114 113 111 108 106 103 103 104 97 90 84 81 80 80 76 77
163 157 152 153 152 141 134 128 131 135 133 130 130 140 146 148 144 136 141 137 132 128 127 122 120 118 120 114 113 111 110 110 111 107 102 96 90 90 90 87 88 85
160 161 155 155 152 142 138 140 140 140 138 140 142 147 148 147 149 149 148 145 138 134 133 131 128 125 122 120 119 118 117 114 111 113 106 102 101 99 97 95 91 81
160 159 158 155 149 138 132 136 137 140 145 149 150 152 148 153 152 153 149 141 139 137 136 135 130 128 127 125 121 118 115 118 118 110 107 104 108 105 99 94 87 84
157 157 156 156 146 139 135 133 135 138 147 149 148 143 150 149 150 147 144 143 139 140 140 137 136 131 133 127 121 121 119 117 117 114 112 111 106 100 96 90 83 82
157 157 156 156 144 136 140 144 140 145 150 148 145 144 148 153 148 149 150 145 144 146 145 143 139 136 132 129 127 127 124 120 117 117 117 121 119 113 104 98 93 90
158 155 155 153 140 140 147 148 146 150 154 152 151 151 153 152 152 153 149 149 146 146 145 144 139 137 137 135 132 128 128 126 126 126 124 119 117 113 107 100 97 95
156 154 151 143 139 145 149 149 150 154 158 157 154 152 147 149 152 149 151 148 149 149 147 144 143 143 139 134 132 134 129 130 132 127 123 115 106 104 99 97 93 87
153 154 147 140 141 145 148 151 153 156 157 157 155 147 148 152 151 153 152 151 154 150 146 145 145 143 140 140 138 136 135 130 126 127 123 122 120 110 103 99 98 92
152 145 140 139 145 147 148 151 152 155 160 158 150 148 152 152 154 152 154 156 152 148 150 146 144 145 143 141 141 139 135 134 133 129 127 121 117 110 106 104 99 90
153 143 138 141 145 149 153 150 150 160 158 150 148 150 155 155 155 154 153 155 149 152 148 146 145 145 145 147 143 140 138 138 134 132 127 122 114 112 109 104 97 88
152 157 145 144 148 154 151 149 155 158 152 151 149 154 156 156 153 153 155 151 153 151 148 148 150 147 152 151 145 144 141 140 140 135 132 126 124 119 118 110 100 87
152 152 156 148 155 157 151 149 154 157 154 152 154 155 156 153 154 154 154 153 155 151 148 150 149 146 79 125 146 144 145 143 137 136 134 132 127 126 120 112 106 101
156 157 150 148 153 151 147 147 153 156 155 156 155 156 155 154 155 157 156 158 155 152 151 152 143 95 80 59 67 125 143 139 142 139 136 132 133 135 132 133 138 139
158 157 143 147 152 151 150 151 156 160 160 160 159 157 156 156 159 157 158 157 156 153 153 150 118 97 83 72 57 33 8 136 142 141 144 143 145 145 146 149 145 144
151 143 142 148 151 149 149 151 160 169 168 171 170 162 158 161 162 159 158 160 159 157 156 140 132 107 97 92 71 22 16 338 147 149 150 147 147 149 149 152 152 150
144 144 146 148 149 149 149 157 167 176 172 173 170 170 166 164 162 159 160 162 161 159 154 140 137 119 115 104 83 27 8 343 157 151 143 138 143 145 157 156 159 158
147 144 145 147 147 150 156 166 174 175 175 174 174 177 171 166 161 162 162 163 162 161 151 139 133 127 117 110 86 26 351 318 159 132 131 140 141 151 156 146 137 128
148 145 146 148 153 159 164 171 179 177 174 175 176 177 173 164 162 164 164 166 164 160 149 135 132 130 125 135 116 239 315 289 130 144 141 143 148 148 156 156 154 160
147 146 149 155 160 163 173 179 182 178 178 179 178 179 172 166 167 164 166 167 164 163 144 136 143 149 144 141 165 206 315 251 155 159 154 156 157 159 157 159 168 163
153 154 155 160 161 170 176 184 185 177 181 176 182 180 173 169 165 165 168 167 168 156 143 147 151 152 153 158 163 192 202 225 179 182 160 166 156 171 173 151 77 51
162 164 159 161 166 177 182 184 180 179 177 179 183 180 170 169 165 165 166 163 160 146 140 153 159 162 171 168 177 191 187 238 248 173 172 167 169 182 180 149 140 107
164 161 159 160 170 182 188 176 166 178 178 181 180 175 170 166 168 161 157 152 147 148 153 162 160 160 180 171 187 194 198 225 265 182 181 174 185 180 186 174 162 160